This is the latest recevied weather packets stored in our database for station/object W2IRT. If no packets are shown the sender has not sent any weather packets the latest 10 day(s).
| Time | Temp. | Humidity | Pressure | Rain* | Wind** | Luminosity | Snow |
|---|---|---|---|---|---|---|---|
| 1777693516 | 13.89° C | 62% | 1011.3 hPa | 0 mm | - | - | - |
| 1777693216 | 13.89° C | 61% | 1011.2 hPa | 0 mm | - | - | - |
| 1777692916 | 13.89° C | 62% | 1011.1 hPa | 0 mm | - | - | - |
| 1777692616 | 13.89° C | 61% | 1011.1 hPa | 0 mm | - | - | - |
| 1777692316 | 13.89° C | 61% | 1011.2 hPa | 0 mm | - | - | - |
| 1777692016 | 13.89° C | 60% | 1011.1 hPa | 0 mm | - | - | - |
| 1777691716 | 13.89° C | 60% | 1011.1 hPa | 0 mm | - | - | - |
| 1777691416 | 13.89° C | 60% | 1010.9 hPa | 0 mm | - | - | - |
| 1777691116 | 13.89° C | 59% | 1011.2 hPa | 0 mm | - | - | - |
| 1777690817 | 13.89° C | 59% | 1011.3 hPa | 0 mm | - | - | - |
| 1777690516 | 13.89° C | 59% | 1011.3 hPa | 0 mm | - | - | - |
| 1777690216 | 13.89° C | 59% | 1011.4 hPa | 0 mm | - | - | - |
| 1777689916 | 13.89° C | 56% | 1011.3 hPa | 0 mm | - | - | - |
| 1777689616 | 13.89° C | 56% | 1011.4 hPa | 0 mm | - | - | - |
| 1777689316 | 13.89° C | 62% | 1011.4 hPa | 0 mm | - | - | - |
| 1777689016 | 13.89° C | 64% | 1011.3 hPa | 0 mm | - | - | - |
| 1777688716 | 13.89° C | 65% | 1011.4 hPa | 0 mm | - | - | - |
| 1777688416 | 13.89° C | 63% | 1011.4 hPa | 0 mm | - | - | - |
| 1777688116 | 14.44° C | 62% | 1011.3 hPa | 0 mm | - | - | - |
| 1777687816 | 14.44° C | 61% | 1011.3 hPa | 0 mm | - | - | - |
| 1777687516 | 14.44° C | 60% | 1011.2 hPa | 0 mm | - | - | - |
| 1777687216 | 14.44° C | 60% | 1011.1 hPa | 0 mm | - | - | - |
| 1777686931 | 14.44° C | 61% | 1011.1 hPa | 0 mm | - | - | - |
| 1777686621 | 14.44° C | 61% | 1011.1 hPa | 0 mm | - | - | - |
| 1777686321 | 14.44° C | 61% | 1011 hPa | 0 mm | - | - | - |
* Rain latest hour (hover to see other rain measurements)
** Current wind speed in m/s (hover to see current wind gust speed)